[[{"header":{"parameterUnit":"m.s-1","parameterCategory":1,"la1":30.2992,"la2":30.254,"lo1":-89.0895,"lo2":-89.0443,"dy":0.0025,"dx":0.0025,"nx":19,"ny":19,"refTime":"2026-05-06T03:00:00:Z","depth":0,"parameterNumber":2,"parameterNumberName":"U-component_of_WINDS"},"data":[0,0,0,0.9733,0.9734,0.9813,0.9813,0.9918,0.9919,0,0,0,0,0,0,0,0,0,0,0,0.9708,0.9708,0.9733,0.9735,0.9813,0.9813,0.9918,0.9919,0,0,0,0,0,0,0,0,0,0,0,0.9707,0.9708,0.9709,0.9735,0.9813,0.9813,0.9917,0.9858,0,0,0,0,0,0,0,0,0,0,0.9781,0.9755,0.9708,0.9709,0.9735,0.9813,0.9813,0.9855,0.9862,0.9883,0,0.9897,0,0.9909,0.9926,0.9926,0,0,0,0.9737,0.9749,0.9772,0.9709,0.9736,0.9813,0.9778,0.9859,0.9866,0.9891,0.9898,0.9902,0.9911,0.9926,0.9927,1.0031,1.0031,0,0,0.9733,0.9721,0.9767,0.9776,0.976,0.9776,0.9781,0.9863,0.9872,0.9899,0.9905,0.9913,0.9927,0.9928,1.003,1.0031,0,0,0,0.9719,0.9718,0.9739,0.9772,0.9786,0.9778,0.9784,0.9868,0.9875,0.9906,0.9914,0.9927,0.9929,1.003,1.003,1.0035,0,0,0,0.9716,0.971,0.9737,0.9731,0.9784,0.9827,0.9786,0.987,0.9879,0.9913,0.9927,0.993,1.0029,1.003,1.0034,1.004,0,0,0,0.9703,0.9709,0.9719,0.973,0.9763,0.9826,0.9838,0.9872,0.9884,0.9926,0.993,1.0029,1.003,1.0033,1.0038,1.0064,0,0,0,0.9687,0.9723,0.9719,0.9763,0.9762,0.9827,0.9838,0.9888,0.9924,0.9928,1.0029,1.003,1.0033,1.0038,1.0063,1.0082,1.0089,0,0,0.9727,0.9728,0.9755,0.9753,0.9815,0.9816,0.9881,0.9927,0.9944,1.0002,1.0005,1.0035,1.0038,1.0063,1.0133,1.0138,0,0,0,0.9764,0.9783,0.9802,0.9834,0.9869,0.99,0.9937,0.9955,1.0004,0.997,1.0051,1.0054,1.0069,1.0079,1.0084,1.0098,1.0034,1.0034,1.0034,0.9803,0.982,0.9867,0.9894,0.9926,0.9964,0.9993,1.0024,1.0034,1.0053,1.007,1.011,1.0121,1.0124,1.0139,1.0082,1.0082,1.0082,1.0083,0.9862,0.9892,0.9904,0.9953,0.9973,1.0016,1.0057,1.0062,1.0108,1.0098,1.0112,1.0099,1.0129,1.0144,1.0083,1.0083,1.0083,1.0083,1.0083,0.9889,0.9906,0.9925,0.9975,1.0013,1.0042,1.0085,1.0103,1.012,1.0135,1.0155,1.0155,1.0158,1.0143,1.0144,1.0144,1.0144,1.0144,1.0144,0.9908,0.993,0.9961,1.0002,1.0026,1.0061,1.0103,1.0129,1.0162,1.0173,1.0173,1.0182,1.0128,1.0114,1.0146,1.0146,1.0146,1.0145,1.0145,0.996,0.9951,1.0,1.0024,1.0075,1.0113,1.0136,1.0188,1.0212,1.0234,1.0241,1.0198,1.0202,1.0198,1.0187,1.0236,1.0236,1.0236,1.0236,0.9982,0.9985,1.004,1.0078,1.0118,1.0144,1.0203,1.0238,1.0273,1.029,1.0286,1.0273,1.0269,1.0275,1.027,1.0259,1.0325,1.0326,1.0326,1.0015,1.0024,1.0068,1.0098,1.0141,1.0178,1.0235,1.0282,1.0321,1.033,1.0304,1.0301,1.028,1.0272,1.0278,1.027,1.0251,0,0]},{"header":{"parameterUnit":"m.s-1","parameterCategory":1,"la1":30.2992,"la2":30.254,"lo1":-89.0895,"lo2":-89.0443,"dy":0.0025,"dx":0.0025,"nx":19,"ny":19,"refTime":"2026-05-06T03:00:00:Z","depth":0,"parameterNumber":3,"parameterNumberName":"V-component_of_WINDS"},"data":[0,0,0,0.4139,0.4146,0.4467,0.4468,0.4871,0.4874,0,0,0,0,0,0,0,0,0,0,0,0.4037,0.4039,0.4139,0.4147,0.4467,0.4468,0.487,0.4874,0,0,0,0,0,0,0,0,0,0,0,0.4036,0.4038,0.4041,0.4148,0.4466,0.4468,0.4869,0.4631,0,0,0,0,0,0,0,0,0,0,0.4321,0.4218,0.4038,0.4042,0.415,0.4466,0.4468,0.462,0.4646,0.4721,0,0.4783,0,0.4834,0.49,0.4902,0,0,0,0.4154,0.4196,0.4289,0.4042,0.4152,0.4466,0.4324,0.4634,0.4664,0.4756,0.4789,0.4804,0.4841,0.4903,0.4905,0.5305,0.5306,0,0,0.4136,0.4092,0.4268,0.4308,0.4254,0.4314,0.4334,0.4652,0.4687,0.479,0.4814,0.4848,0.4905,0.4908,0.5303,0.5305,0,0,0,0.408,0.4079,0.4164,0.4291,0.4349,0.4323,0.4346,0.4673,0.4704,0.4818,0.4852,0.4908,0.4912,0.5302,0.5304,0.5333,0,0,0,0.407,0.4046,0.4156,0.4132,0.4343,0.4514,0.436,0.4682,0.472,0.485,0.4908,0.4916,0.53,0.5303,0.5329,0.5356,0,0,0,0.4019,0.4041,0.4084,0.4129,0.4265,0.451,0.456,0.4691,0.474,0.4902,0.4917,0.5299,0.5302,0.5325,0.5349,0.5445,0,0,0,0.3952,0.411,0.4083,0.4273,0.4261,0.4525,0.4558,0.4758,0.4901,0.491,0.53,0.5304,0.5324,0.5346,0.5441,0.5517,0.5544,0,0,0.4126,0.4129,0.4244,0.423,0.4485,0.448,0.4742,0.4917,0.4976,0.5193,0.5203,0.5331,0.5349,0.5444,0.5717,0.5738,0,0,0,0.4284,0.4366,0.4443,0.4573,0.4707,0.4825,0.4963,0.5028,0.5212,0.5077,0.5394,0.5406,0.5464,0.5502,0.5521,0.5573,0.532,0.532,0.5319,0.4468,0.4529,0.4723,0.4822,0.4949,0.5087,0.5196,0.5307,0.5338,0.5411,0.5475,0.5632,0.5676,0.569,0.5743,0.5522,0.5522,0.5522,0.5522,0.4727,0.4852,0.4882,0.5079,0.5144,0.5313,0.5453,0.5467,0.5635,0.559,0.5644,0.5588,0.5711,0.5761,0.5525,0.5524,0.5524,0.5524,0.5524,0.4854,0.4923,0.4995,0.5187,0.5329,0.5426,0.5583,0.5639,0.5693,0.5746,0.5819,0.5819,0.5824,0.5777,0.5778,0.5778,0.5779,0.5779,0.5779,0.4955,0.5035,0.5159,0.531,0.5399,0.5524,0.5663,0.5753,0.5868,0.5896,0.5897,0.5918,0.5711,0.5657,0.5788,0.5787,0.5786,0.5785,0.5784,0.5193,0.5147,0.5337,0.5426,0.5607,0.5742,0.581,0.5988,0.6072,0.6147,0.6156,0.5994,0.6003,0.5989,0.5945,0.6143,0.6143,0.6143,0.6143,0.5298,0.5306,0.5511,0.5648,0.579,0.5868,0.6083,0.6191,0.6298,0.6353,0.6333,0.6279,0.6262,0.6281,0.6261,0.622,0.6484,0.6484,0.6484,0.5447,0.547,0.5641,0.5739,0.5884,0.6008,0.621,0.6369,0.6481,0.6499,0.6397,0.6383,0.6297,0.6266,0.6281,0.6249,0.6175,0,0]}]]